Weather History for KLRD - September, 2013

Change the Weather History Date:

Sunday, September 1, 2013

  Actual Average Record
Temperature  
Mean Temperature 91 °F 87 °F  
Max Temperature 103 °F 97 °F 108 °F (1974)
Min Temperature 78 °F 76 °F 54 °F (1923)
Degree Days  
Heating Degree Days 0 0  
Month to date heating degree days 0 0  
Since 1 July heating degree days 0 0  
Cooling Degree Days 26 22  
Month to date cooling degree days 26 22  
Year to date cooling degree days 3434 3265  
Growing Degree Days 40 (Base 50)    
Moisture  
Dew Point 67 °F    
Average Humidity 51    
Maximum Humidity 85    
Minimum Humidity 25    
Precipitation  
Precipitation 0.00 in 0.11 in 1.30 in (1936)
Month to date precipitation 0.00 0.11  
Year to date precipitation 11.76 13.10  
Sea Level Pressure  
Sea Level Pressure 29.83 in    
Wind  
Wind Speed 10 mph (SE)    
Max Wind Speed 18 mph    
Max Gust Speed 22 mph    
Visibility 10 miles    
Events      
T = Trace of Precipitation, MM = Missing Value Source: NWS Daily Summary

Daily Weather History Graph

Daily Weather History Graph

Search for Another Location

Airport or City:

Trip Planner

Search our weather history database for the weather conditions in past years. The results will help you decide how hot, cold, wet, or windy it might be!

Date:

Astronomy

Sep. 01, 2013 Rise Set
Actual Time 7:16 AM CDT 7:58 PM CDT
Civil Twilight 6:53 AM CDT 8:21 PM CDT
Nautical Twilight 6:25 AM CDT 8:49 PM CDT
Astronomical Twilight 5:56 AM CDT 9:18 PM CDT
Moon 3:52 AM CDT (9/1) 5:26 PM CDT (9/1)
Length of Visible Light 13h 28m
Length of Day
12h 41m
Waning Crescent, 13% of the Moon is Illuminated
Sep 1
Waning Crescent
Sep 5
New
Sep 12
First Quarter
Sep 19
Full
Sep 26
Last Quarter

Hourly Weather History & Observations

Time (CDT) Temp. Heat Index Dew Point Humidity Pressure Visibility Wind Dir Wind Speed Gust Speed Precip Events Conditions
12:56 AM 84.9 °F 90.7 °F 72.0 °F 65% 29.85 in 10.0 mi SE 11.5 mph - N/A   Clear
1:56 AM 83.8 °F 88.6 °F 70.9 °F 65% 29.86 in 10.0 mi SSE 12.7 mph - N/A   Clear
2:56 AM 82.9 °F 87.0 °F 70.0 °F 65% 29.86 in 10.0 mi SSE 10.4 mph - N/A   Clear
3:56 AM 81.9 °F 86.0 °F 70.9 °F 69% 29.85 in 10.0 mi SSE 12.7 mph - N/A   Clear
4:56 AM 79.9 °F - 72.9 °F 79% 29.84 in 10.0 mi SSE 9.2 mph - N/A   Clear
5:56 AM 79.9 °F - 72.9 °F 79% 29.84 in 10.0 mi SSE 9.2 mph - N/A   Clear
6:56 AM 79.0 °F - 73.9 °F 84% 29.85 in 10.0 mi SSE 8.1 mph - N/A   Clear
7:56 AM 79.0 °F - 73.9 °F 84% 29.87 in 10.0 mi SE 8.1 mph - N/A   Clear
8:56 AM 81.9 °F 87.0 °F 72.9 °F 74% 29.88 in 10.0 mi SSE 11.5 mph - N/A   Clear
9:56 AM 86.9 °F 93.3 °F 72.0 °F 61% 29.89 in 10.0 mi SE 9.2 mph - N/A   Clear
10:56 AM 90.9 °F 98.3 °F 72.0 °F 54% 29.89 in 10.0 mi SSE 6.9 mph - N/A   Clear
11:56 AM 93.9 °F 98.6 °F 68.0 °F 43% 29.88 in 10.0 mi SSE 8.1 mph - N/A   Clear
12:56 PM 97.0 °F 97.8 °F 61.9 °F 31% 29.86 in 10.0 mi ESE 8.1 mph 16.1 mph N/A   Clear
1:56 PM 97.9 °F 98.8 °F 61.9 °F 30% 29.84 in 10.0 mi East 11.5 mph - N/A   Clear
2:56 PM 99.0 °F 100.5 °F 63.0 °F 30% 29.82 in 10.0 mi Variable 6.9 mph - N/A   Clear
3:56 PM 100.9 °F 103.3 °F 63.0 °F 29% 29.79 in 10.0 mi SE 8.1 mph - N/A   Clear
4:56 PM 102.9 °F 104.8 °F 61.9 °F 26% 29.77 in 10.0 mi East 10.4 mph - N/A   Clear
5:56 PM 101.8 °F 102.4 °F 59.9 °F 25% 29.76 in 10.0 mi ESE 8.1 mph - N/A   Clear
6:56 PM 100.9 °F 101.6 °F 59.9 °F 26% 29.76 in 10.0 mi ESE 11.5 mph - N/A   Clear
7:56 PM 97.9 °F 97.8 °F 59.9 °F 28% 29.77 in 10.0 mi ESE 9.2 mph - N/A   Clear
8:56 PM 95.0 °F 95.2 °F 61.0 °F 32% 29.79 in 10.0 mi East 10.4 mph - N/A   Clear
9:56 PM 91.9 °F 91.8 °F 61.0 °F 35% 29.82 in 10.0 mi East 9.2 mph - N/A   Clear
10:56 PM 90.0 °F 95.9 °F 70.9 °F 53% 29.83 in 10.0 mi ESE 17.3 mph - N/A   Clear
11:56 PM 88.0 °F 92.9 °F 70.0 °F 55% 29.85 in 10.0 mi SE 15.0 mph - N/A   Clear